Retour au catalogue

STARLINK-33935

ActifCommunicationsVLEO
NORAD 63791·PAYLOAD·🇺🇸 United States

Lancé May 2, 2025 depuis Cape Canaveral Space Force Station

Loading…

Prochains Passages (prochaines 24 heures)

TLE

FraisSource: CelesTrak SupGP

Époque: Sep 14, 2026, 21:42 UTC

1 63791C 25091S   26257.90465278  .00058794  00000+0  21297-2 0  2578
2 63791  43.0002  64.2695 0001530 273.2488 186.2816 15.27545457    10

Suivez STARLINK-33935 en temps réel avec AllMySat

Download on the App Store